Overview Statistics Trail Chart Weather Telemetry Raw packets
 

This is the latest recevied weather packets stored in our database for station/object NO9B. If no packets are shown the sender has not sent any weather packets the latest 10 day(s).

<< 53 54 55 56 57 58 59 >>
Time Temp. Humidity Pressure Rain* Wind** Luminosity Snow
1788301689 26.67° C 86% 1015.1 hPa 0 mm - 42 W/m² -
1788301386 26.67° C 89% 1015 hPa 0 mm - 57 W/m² -
1788301081 26.67° C 89% 1014.8 hPa 0.51 mm - 83 W/m² -
1788300776 26.67° C 89% 1015.1 hPa 0.51 mm - 104 W/m² -
1788300476 26.67° C 91% 1015 hPa 1.78 mm - 83 W/m² -
1788300176 26.67° C 89% 1015.1 hPa 1.27 mm - 48 W/m² -
1788299874 26.67° C 90% 1014.9 hPa 1.27 mm - 44 W/m² -
1788299574 26.67° C 89% 1015.2 hPa 1.27 mm - 69 W/m² -
1788299273 26.67° C 89% 1015.2 hPa 0.51 mm - 63 W/m² -
1788298972 26.67° C 88% 1015 hPa 0.51 mm - 37 W/m² -
1788298667 26.67° C 89% 1015 hPa 0 mm - 39 W/m² -
1788298366 26.67° C 87% 1015.2 hPa 0 mm - 64 W/m² -
1788298066 26.67° C 88% 1015.1 hPa 0.51 mm - 122 W/m² -
1788297763 26.11° C 91% 1015.3 hPa 2.29 mm - 240 W/m² -
1788297457 26.11° C 89% 1015.3 hPa 0.51 mm - 29 W/m² -
1788297153 26.11° C 89% 1015.2 hPa 0 mm - 23 W/m² -
1788296850 26.11° C 89% 1015.3 hPa 0.51 mm - 53 W/m² -
1788296545 26.11° C 86% 1015.2 hPa 0.51 mm - 41 W/m² -
1788296241 26.11° C 87% 1015.3 hPa 0 mm - 78 W/m² -
1788295940 26.11° C 87% 1015.2 hPa 0.51 mm - 33 W/m² -
1788295642 26.67° C 87% 1015 hPa 1.27 mm - 82 W/m² -
1788295332 26.67° C 83% 1015.1 hPa 4.32 mm - 42 W/m² -
1788295027 27.22° C 86% 1015 hPa 5.33 mm - 25 W/m² -
1788294721 27.22° C 92% 1015.3 hPa 1.27 mm - 22 W/m² -
1788294421 27.22° C 91% 1015.2 hPa 0.51 mm - 26 W/m² -

* Rain latest hour (hover to see other rain measurements)
** Current wind speed in m/s (hover to see current wind gust speed)